THORAD AGENA D DEB, 4943

Orbit data source: Space-Track

THORAD AGENA D DEB, 4943 is space debris in SSO originally from a launch on Wed, 08 Apr 1970 UTC launched from the Air Force Western Test Range (AFWTR). Debris objects in space refer to the collection of defunct objects orbiting the Earth. Examples of debris include non-operational satellites, rocket bodies, and fragments generated from explosions, collisions, or faulty payload assembly.

Loading next visibility...
Identifier
4943, 1970-025GD
Orbit
SSO
Country
Flag of USUS
Related business
Manufacturer
Unknown
Mission
Spacecraft
Bus & Motor
Unknown
Mass
Unknown
Launch date (UTC)
1970-04-08 (56 years ago)
Launch vehicle
Unknown
Launch site
Air Force Western Test Range (AFWTR)
Object type
Payload
Rocket body
Debris
Shape & HBR
Unknown shape, 0.1 m
Radar Cross Section
Small (<0.1 m²)

Expand to show TLE details & history
Last TLE update: 12 hours ago

TLE from 12 hours ago
0 THORAD AGENA D DEB
1  4943U 70025GD  25299.53674941  .00000160  00000-0  49991-3 0  9992
2  4943  99.6171 281.8933 0228190 357.2804 123.9685 13.10551541651114
Epoch: 2025-10-26T12:52Z
TLE epoch observation values (Epoch: 2025-10-26T12:52:55.149Z)
Latitude
55.50827°
Longitude
-112.28295°
Altitude
1,329.716 km
Speed
7.15 km/s
True Right ascension
07h 44m 23s
True Declination
55° 21' 34"
Sunlit
Object was in daylight at epoch
Visualization orbit readout
Latitude
Unknown
Longitude
Unknown
Altitude
Unknown
Speed
Unknown
Apparent Right ascension
Unknown
Apparent Declination
Unknown
Sunlit
N/A
Visualization observer readout
Local Sidereal Time
20:12:22
Azimuth
Unknown
Elevation
Unknown
Doppler factor
Unknown
Orbital elements
Apogee altitude
1,391.719 km
Perigee altitude
1,045.03 km
Semi-major axis
7,596.511 km
Eccentricity
0.02282
Inclination
99.6171°
RAAN
281.8933°
Arg. of periapsis
357.2804°
True anomaly
126.10259°
Mean anomaly
123.9685°
Eccentric anomaly
125.03898°
Mean motion
3.2781 °/min
Orbital period
109.82 mins
BSTAR
0.00049991
Loading maneuver chart data...
Computing Atmospheric mass density...

Documentation

Showing up to 5 results
|